Terminal Aerodrome Forecast
Issued by NWS Portland, OR

Home | Current Version | Previous Version | Text Only | Print | Product List | Glossary On
Versions: 1 2 3 4 5 6 7 8 9 10 11 12 13 14 15 16 17 18 19 20 21 22 23 24 25 26 27 28 29 30 31
000
FTUS46 KPQR 280528
TAFTTD
TAF
KTTD 280528Z 2806/2906 VRB03KT 4SM BR SCT008 BKN010 OVC015
     FM280900 00000KT 5SM BR SCT008 BKN015 OVC025
     FM281600 VRB03KT 6SM BR SCT020 OVC045
     FM282300 06004KT P6SM OVC060=

USA.gov is the U.S. government's official web portal to all federal, state and local government web resources and services.